GPS BIIRM-3 (PRN 12)

Last updated on Wed Sep 17 2025 00:03:17 GMT+0000 (Coordinated Universal Time)

1 29601U 06052A 25259.19941401 .00000015 00000+0 00000+0 0 9997 2 29601 54.9952 224.8688 0085119 86.9526 274.0003 2.00568221137915
UTC large
Height (km)
Speed (km/s)
/
Latitude / Longitude
Inclination (degrees)
Orbital Period (minutes)
Azimuth
Elevation
Range (km)
Doppler Factor

Next 0 passes for location: London (51.5072 / 0.1276)

Sorry there are no passes over London.